Location: De Har
(53.3413°N, 6.6858°E)
Time: 16:37:21
(UTC+00:00)

Cosmos 2279 Rocket - Pass Details

Date: 22 April 2026
Orbit: 964 x 976 km, 82.9° (Epoch: 9 May)

Event Time Altitude Azimuth Distance (km) Brightness Sun altitude
Exits shadow 01:03:59 31° 163° (SSE) 1,621 4.8 -21.6°
Maximum altitude 01:06:57 63° 94° (E) 1,081 4.3 -21.4°
Drops below altitude 10° 01:13:07 10° 15° (NNE) 2,735 7.5 -21.0°
Sets 01:15:40 0° 13° (NNE) 3,688 8.4 -20.9°
